BLY7464 LFBE-EGCC

Flight info

Callsign BLY7464
Flight time 1h 27m
Altitude 39000
Route VELIN R17 CNA/N0453F380 DCT MANAK DCT THRED/N0458F390 DCT TIMPO DCT ELVOS
Aircraft B772/H-SDE2E3FGHIJ5LORVWXY/LB1D1

Departure

Time 2026-04-26 21:31
Airport Bergerac Dordogne-Périgord airport (LFBE)

Arrival

Time 2026-04-26 22:58
Airport Manchester Airport (EGCC)
Time Latitude Longitude Altitude Speed Heading
2026-04-26 20:56 44.82289 0.51033 181 ft 0 kts 92°
2026-04-26 21:21 44.82289 0.51034 181 ft 0 kts 92°
2026-04-26 21:23 44.82289 0.51065 181 ft 2 kts 90°
2026-04-26 21:23 44.82292 0.51088 181 ft 2 kts 74°
2026-04-26 21:23 44.82300 0.51109 181 ft 2 kts 59°
2026-04-26 21:23 44.82308 0.51130 176 ft 2 kts 63°
2026-04-26 21:24 44.82314 0.51152 181 ft 2 kts 71°
2026-04-26 21:24 44.82321 0.51200 181 ft 9 kts 83°
2026-04-26 21:24 44.82321 0.51286 181 ft 9 kts 93°
2026-04-26 21:24 44.82317 0.51372 181 ft 9 kts 94°
2026-04-26 21:25 44.82312 0.51458 181 ft 9 kts 95°
2026-04-26 21:25 44.82307 0.51544 181 ft 9 kts 95°
2026-04-26 21:25 44.82303 0.51629 181 ft 9 kts 95°
2026-04-26 21:25 44.82298 0.51715 181 ft 9 kts 94°
2026-04-26 21:26 44.82294 0.51801 181 ft 9 kts 94°
2026-04-26 21:26 44.82289 0.51887 181 ft 9 kts 94°
2026-04-26 21:26 44.82285 0.51973 181 ft 9 kts 92°
2026-04-26 21:26 44.82323 0.52032 181 ft 9 kts 20°
2026-04-26 21:27 44.82384 0.52047 182 ft 9 kts
2026-04-26 21:27 44.82432 0.52091 182 ft 9 kts 66°
2026-04-26 21:27 44.82435 0.52176 182 ft 9 kts 92°
2026-04-26 21:27 44.82432 0.52263 182 ft 9 kts 94°
2026-04-26 21:28 44.82427 0.52349 182 ft 9 kts 94°
2026-04-26 21:28 44.82423 0.52436 182 ft 9 kts 94°
2026-04-26 21:28 44.82418 0.52529 181 ft 10 kts 94°
2026-04-26 21:28 44.82413 0.52639 181 ft 12 kts 94°
2026-04-26 21:29 44.82407 0.52762 181 ft 13 kts 94°
2026-04-26 21:29 44.82400 0.52895 180 ft 14 kts 94°
2026-04-26 21:29 44.82396 0.53036 181 ft 14 kts 81°
2026-04-26 21:29 44.82431 0.53166 181 ft 14 kts 91°
2026-04-26 21:30 44.82398 0.53194 181 ft 5 kts 225°
2026-04-26 21:30 44.82387 0.53148 181 ft 5 kts 261°
2026-04-26 21:30 44.82387 0.53125 181 ft 5 kts 269°
2026-04-26 21:30 44.82394 0.52950 180 ft 51 kts 274°
2026-04-26 21:31 44.82453 0.51938 189 ft 154 kts 275°
2026-04-26 21:31 44.82598 0.49645 1467 ft 178 kts 278°
2026-04-26 21:31 44.82668 0.48478 2420 ft 181 kts 278°
2026-04-26 21:31 44.82801 0.45896 2951 ft 217 kts 277°
2026-04-26 21:32 44.82913 0.43649 3297 ft 239 kts 276°
2026-04-26 21:32 44.82999 0.42047 3611 ft 248 kts 279°
2026-04-26 21:32 44.83645 0.39763 3971 ft 257 kts 310°
2026-04-26 21:32 44.84851 0.37833 4535 ft 268 kts 313°
2026-04-26 21:33 44.85636 0.36556 4999 ft 272 kts 311°
2026-04-26 21:33 44.86715 0.34766 5684 ft 276 kts 310°
2026-04-26 21:33 44.87957 0.32681 6162 ft 279 kts 310°
2026-04-26 21:33 44.89221 0.30551 6163 ft 283 kts 309°
2026-04-26 21:34 44.90488 0.28405 6511 ft 286 kts 309°
2026-04-26 21:34 44.91760 0.26247 7414 ft 285 kts 309°
2026-04-26 21:34 44.93023 0.24099 8311 ft 284 kts 309°
2026-04-26 21:34 44.94290 0.21941 9085 ft 288 kts 309°
2026-04-26 21:35 44.95573 0.19750 9922 ft 289 kts 309°
2026-04-26 21:35 44.96863 0.17548 10581 ft 297 kts 309°
2026-04-26 21:35 44.98303 0.15337 10722 ft 315 kts 322°
2026-04-26 21:35 45.00259 0.13811 11090 ft 328 kts 336°
2026-04-26 21:36 45.02329 0.12455 11747 ft 337 kts 334°
2026-04-26 21:36 45.04432 0.10973 12668 ft 340 kts 333°
2026-04-26 21:36 45.06573 0.09491 13691 ft 344 kts 334°
2026-04-26 21:36 45.08742 0.08023 14587 ft 346 kts 334°
2026-04-26 21:37 45.10928 0.06551 15102 ft 350 kts 334°
2026-04-26 21:37 45.13137 0.05061 15170 ft 355 kts 334°
2026-04-26 21:37 45.15374 0.03548 15175 ft 354 kts 334°
2026-04-26 21:37 45.17593 0.02045 15171 ft 352 kts 334°
2026-04-26 21:38 45.19797 0.00547 15176 ft 351 kts 334°
2026-04-26 21:38 45.22003 -0.00954 15178 ft 351 kts 334°
2026-04-26 21:38 45.24208 -0.02457 15177 ft 352 kts 334°
2026-04-26 21:38 45.25632 -0.03428 15176 ft 352 kts 334°
2026-04-26 21:39 45.27819 -0.04920 15170 ft 352 kts 334°
2026-04-26 21:39 45.30029 -0.06430 15175 ft 352 kts 334°
2026-04-26 21:39 45.32209 -0.07921 15177 ft 352 kts 334°
2026-04-26 21:39 45.34418 -0.09433 15175 ft 352 kts 334°
2026-04-26 21:40 45.36632 -0.10950 15176 ft 353 kts 334°
2026-04-26 21:40 45.38848 -0.12470 15175 ft 353 kts 334°
2026-04-26 21:40 45.41054 -0.13984 15179 ft 353 kts 334°
2026-04-26 21:40 45.43196 -0.15455 15178 ft 353 kts 334°
2026-04-26 21:41 45.45469 -0.17018 15180 ft 352 kts 334°
2026-04-26 21:41 45.47677 -0.18538 15182 ft 352 kts 334°
2026-04-26 21:41 45.49883 -0.20057 15182 ft 352 kts 334°
2026-04-26 21:41 45.52090 -0.21579 15184 ft 352 kts 334°
2026-04-26 21:42 45.54303 -0.23105 15301 ft 356 kts 333°
2026-04-26 21:42 45.56571 -0.24672 15984 ft 366 kts 333°
2026-04-26 21:42 45.58867 -0.26258 16882 ft 369 kts 333°
2026-04-26 21:42 45.61194 -0.27869 17779 ft 374 kts 333°
2026-04-26 21:43 45.63554 -0.29503 18639 ft 379 kts 333°
2026-04-26 21:43 45.65872 -0.31247 19400 ft 382 kts 328°
2026-04-26 21:43 45.68075 -0.33409 20177 ft 386 kts 321°
2026-04-26 21:43 45.70190 -0.35800 20950 ft 390 kts 320°
2026-04-26 21:44 45.72324 -0.38237 21713 ft 395 kts 320°
2026-04-26 21:44 45.74481 -0.40703 22505 ft 399 kts 320°
2026-04-26 21:44 45.76666 -0.43195 23294 ft 404 kts 320°
2026-04-26 21:44 45.78878 -0.45710 24017 ft 408 kts 320°
2026-04-26 21:45 45.81112 -0.48246 24705 ft 411 kts 320°
2026-04-26 21:45 45.83367 -0.50805 25395 ft 414 kts 320°
2026-04-26 21:45 45.85634 -0.53378 26079 ft 417 kts 320°
2026-04-26 21:45 45.87919 -0.55972 26747 ft 420 kts 320°
2026-04-26 21:46 45.90223 -0.58591 27342 ft 423 kts 320°
2026-04-26 21:46 45.92541 -0.61227 27959 ft 427 kts 320°
2026-04-26 21:46 45.94877 -0.63890 28546 ft 430 kts 320°
2026-04-26 21:46 45.97230 -0.66573 29127 ft 433 kts 320°
2026-04-26 21:47 45.99576 -0.69252 29639 ft 437 kts 320°
2026-04-26 21:47 46.01967 -0.71985 30156 ft 441 kts 320°
2026-04-26 21:47 46.04380 -0.74745 30596 ft 443 kts 320°
2026-04-26 21:47 46.06798 -0.77516 31032 ft 445 kts 319°
2026-04-26 21:48 46.09230 -0.80306 31466 ft 448 kts 319°
2026-04-26 21:48 46.11678 -0.83118 31820 ft 451 kts 319°
2026-04-26 21:48 46.14143 -0.85950 32196 ft 454 kts 319°
2026-04-26 21:48 46.16623 -0.88804 32601 ft 456 kts 319°
2026-04-26 21:49 46.19192 -0.91504 32919 ft 460 kts 327°
2026-04-26 21:49 46.22097 -0.93539 33213 ft 467 kts 336°
2026-04-26 21:49 46.25221 -0.94905 33578 ft 472 kts 345°
2026-04-26 21:49 46.28491 -0.95568 33900 ft 476 kts 351°
2026-04-26 21:50 46.31799 -0.96046 34191 ft 478 kts 352°
2026-04-26 21:50 46.33999 -0.96346 34346 ft 480 kts 352°
2026-04-26 21:50 46.38422 -0.96952 34640 ft 483 kts 352°
2026-04-26 21:50 46.41780 -0.97430 34844 ft 485 kts 351°
2026-04-26 21:51 46.45142 -0.97927 35159 ft 484 kts 351°
2026-04-26 21:51 46.48484 -0.98435 35557 ft 482 kts 351°
2026-04-26 21:51 46.51816 -0.98951 35935 ft 481 kts 351°
2026-04-26 21:51 46.55136 -0.99471 36267 ft 480 kts 351°
2026-04-26 21:52 46.58461 -0.99995 36574 ft 480 kts 351°
2026-04-26 21:52 46.61786 -1.00521 36843 ft 481 kts 351°
2026-04-26 21:52 46.65110 -1.01046 37185 ft 479 kts 351°
2026-04-26 21:52 46.68415 -1.01567 37601 ft 476 kts 351°
2026-04-26 21:53 46.71693 -1.02084 37983 ft 472 kts 351°
2026-04-26 21:53 46.74952 -1.02598 38401 ft 470 kts 351°
2026-04-26 21:53 46.78189 -1.03109 38819 ft 467 kts 351°
2026-04-26 21:53 46.81381 -1.03614 39149 ft 465 kts 351°
2026-04-26 21:54 46.87871 -1.04647 39211 ft 473 kts 351°
2026-04-26 21:54 46.94390 -1.05684 39198 ft 468 kts 351°
2026-04-26 21:55 47.00857 -1.06712 39209 ft 466 kts 351°
2026-04-26 21:55 47.07318 -1.07745 39208 ft 467 kts 351°
2026-04-26 21:56 47.13782 -1.08781 39208 ft 468 kts 351°
2026-04-26 21:56 47.20219 -1.09814 39214 ft 468 kts 351°
2026-04-26 21:57 47.26709 -1.10859 39208 ft 469 kts 351°
2026-04-26 21:57 47.33206 -1.11906 39207 ft 469 kts 351°
2026-04-26 21:58 47.39706 -1.12957 39217 ft 470 kts 351°
2026-04-26 21:58 47.46213 -1.14012 39208 ft 470 kts 351°
2026-04-26 21:59 47.52691 -1.15065 39205 ft 470 kts 351°
2026-04-26 21:59 47.59199 -1.16125 39213 ft 470 kts 351°
2026-04-26 22:00 47.65710 -1.17188 39211 ft 470 kts 351°
2026-04-26 22:00 47.72218 -1.18254 39213 ft 470 kts 351°
2026-04-26 22:01 47.78739 -1.19325 39210 ft 471 kts 351°
2026-04-26 22:01 47.85209 -1.20389 39215 ft 471 kts 351°
2026-04-26 22:02 47.90636 -1.21285 39213 ft 471 kts 351°
2026-04-26 22:02 47.98268 -1.22547 39216 ft 471 kts 351°
2026-04-26 22:03 48.04798 -1.23629 39219 ft 472 kts 351°
2026-04-26 22:03 48.11295 -1.24709 39215 ft 472 kts 351°
2026-04-26 22:04 48.17829 -1.25798 39218 ft 472 kts 351°
2026-04-26 22:04 48.24366 -1.26890 39230 ft 472 kts 351°
2026-04-26 22:05 48.30909 -1.27987 39220 ft 473 kts 351°
2026-04-26 22:05 48.37450 -1.29086 39212 ft 473 kts 351°
2026-04-26 22:06 48.43962 -1.30183 39238 ft 474 kts 351°
2026-04-26 22:06 48.50525 -1.31290 39228 ft 475 kts 351°
2026-04-26 22:07 48.57104 -1.32404 39230 ft 476 kts 351°
2026-04-26 22:07 48.62620 -1.33340 39226 ft 476 kts 351°
2026-04-26 22:08 48.70274 -1.34642 39229 ft 476 kts 351°
2026-04-26 22:08 48.76864 -1.35766 39235 ft 476 kts 351°
2026-04-26 22:09 48.83462 -1.36894 39230 ft 476 kts 351°
2026-04-26 22:09 48.90056 -1.38025 39235 ft 476 kts 351°
2026-04-26 22:10 48.96602 -1.39151 39241 ft 476 kts 351°
2026-04-26 22:10 49.03187 -1.40286 39235 ft 476 kts 351°
2026-04-26 22:11 49.09768 -1.41424 39248 ft 476 kts 350°
2026-04-26 22:11 49.16354 -1.42566 39240 ft 476 kts 350°
2026-04-26 22:12 49.22938 -1.43710 39240 ft 476 kts 350°
2026-04-26 22:12 49.29526 -1.44859 39248 ft 476 kts 350°
2026-04-26 22:13 49.36110 -1.46010 39257 ft 476 kts 350°
2026-04-26 22:13 49.42661 -1.47157 39257 ft 477 kts 350°
2026-04-26 22:14 49.49261 -1.48316 39264 ft 477 kts 350°
2026-04-26 22:14 49.55861 -1.49479 39271 ft 477 kts 350°
2026-04-26 22:15 49.62463 -1.50646 39265 ft 477 kts 350°
2026-04-26 22:15 49.69026 -1.51808 39265 ft 477 kts 350°
2026-04-26 22:16 49.75636 -1.52982 39276 ft 477 kts 350°
2026-04-26 22:16 49.81128 -1.53960 39267 ft 478 kts 350°
2026-04-26 22:17 49.87743 -1.55141 39268 ft 478 kts 350°
2026-04-26 22:17 49.94359 -1.56325 39270 ft 478 kts 350°
2026-04-26 22:18 50.00974 -1.57513 39276 ft 479 kts 350°
2026-04-26 22:18 50.07603 -1.58706 39274 ft 479 kts 350°
2026-04-26 22:19 50.14170 -1.59891 39278 ft 478 kts 350°
2026-04-26 22:19 50.20786 -1.61089 39285 ft 478 kts 350°
2026-04-26 22:20 50.27400 -1.62289 39280 ft 478 kts 350°
2026-04-26 22:20 50.34018 -1.63494 39280 ft 478 kts 350°
2026-04-26 22:21 50.40628 -1.64701 39283 ft 478 kts 350°
2026-04-26 22:21 50.47247 -1.65865 39286 ft 479 kts 353°
2026-04-26 22:22 50.53940 -1.65627 39285 ft 484 kts
2026-04-26 22:22 50.60565 -1.64072 39296 ft 484 kts
2026-04-26 22:23 50.67235 -1.62415 39300 ft 484 kts
2026-04-26 22:23 50.73904 -1.60806 39293 ft 484 kts
2026-04-26 22:24 50.75491 -1.60430 39292 ft 484 kts
2026-04-26 22:24 50.81790 -1.58948 39293 ft 484 kts
2026-04-26 22:25 50.88419 -1.57392 39302 ft 484 kts
2026-04-26 22:25 50.95099 -1.55817 39295 ft 484 kts
2026-04-26 22:26 51.01755 -1.54241 39293 ft 484 kts
2026-04-26 22:26 51.08413 -1.52660 39292 ft 484 kts
2026-04-26 22:27 51.15070 -1.51074 39294 ft 483 kts
2026-04-26 22:27 51.21727 -1.49484 39295 ft 483 kts
2026-04-26 22:28 51.28383 -1.47889 39294 ft 484 kts
2026-04-26 22:28 51.35001 -1.46299 39311 ft 484 kts
2026-04-26 22:29 51.41602 -1.44705 39285 ft 475 kts
2026-04-26 22:29 51.48118 -1.43130 39291 ft 472 kts
2026-04-26 22:30 51.51361 -1.42344 39012 ft 469 kts
2026-04-26 22:30 51.54581 -1.41563 38485 ft 467 kts
2026-04-26 22:30 51.57748 -1.40794 37962 ft 465 kts
2026-04-26 22:30 51.60939 -1.40017 37477 ft 462 kts
2026-04-26 22:31 51.64104 -1.39245 37038 ft 458 kts
2026-04-26 22:31 51.67253 -1.38476 36610 ft 455 kts
2026-04-26 22:31 51.70378 -1.37713 36180 ft 452 kts
2026-04-26 22:31 51.73477 -1.36955 35747 ft 449 kts
2026-04-26 22:32 51.76559 -1.36200 35306 ft 447 kts
2026-04-26 22:32 51.79626 -1.35448 34884 ft 444 kts
2026-04-26 22:32 51.82676 -1.34698 34491 ft 442 kts
2026-04-26 22:32 51.85713 -1.33951 34045 ft 440 kts
2026-04-26 22:33 51.88730 -1.33209 33600 ft 436 kts
2026-04-26 22:33 51.94496 -1.31778 31920 ft 414 kts
2026-04-26 22:33 51.97290 -1.31085 31631 ft 402 kts
2026-04-26 22:34 52.00054 -1.30403 31236 ft 401 kts
2026-04-26 22:34 52.02809 -1.29723 30880 ft 399 kts
2026-04-26 22:34 52.05546 -1.29047 30525 ft 397 kts
2026-04-26 22:34 52.08272 -1.28372 30119 ft 396 kts
2026-04-26 22:35 52.10987 -1.27697 29684 ft 394 kts
2026-04-26 22:35 52.13697 -1.27022 29278 ft 392 kts
2026-04-26 22:35 52.16394 -1.26350 28878 ft 390 kts
2026-04-26 22:35 52.19074 -1.25680 28465 ft 389 kts
2026-04-26 22:36 52.21746 -1.25012 28075 ft 388 kts
2026-04-26 22:36 52.24378 -1.24353 27685 ft 386 kts
2026-04-26 22:36 52.27031 -1.23689 27293 ft 385 kts
2026-04-26 22:36 52.29678 -1.23025 26914 ft 384 kts
2026-04-26 22:37 52.32315 -1.22362 26519 ft 383 kts
2026-04-26 22:37 52.34953 -1.21699 25959 ft 387 kts
2026-04-26 22:37 52.37628 -1.21028 25430 ft 390 kts
2026-04-26 22:37 52.40313 -1.20351 24986 ft 390 kts
2026-04-26 22:38 52.42988 -1.19674 24585 ft 389 kts
2026-04-26 22:38 52.45660 -1.18997 24184 ft 388 kts
2026-04-26 22:38 52.48325 -1.18323 23770 ft 387 kts
2026-04-26 22:38 52.50991 -1.17647 23302 ft 386 kts
2026-04-26 22:39 52.53624 -1.17093 22870 ft 377 kts 358°
2026-04-26 22:39 52.56197 -1.17542 22470 ft 369 kts 342°
2026-04-26 22:39 52.58549 -1.18960 22073 ft 361 kts 329°
2026-04-26 22:39 52.60664 -1.21073 21660 ft 351 kts 324°
2026-04-26 22:40 52.62660 -1.23164 21272 ft 328 kts 324°
2026-04-26 22:40 52.64561 -1.25135 20933 ft 321 kts 324°
2026-04-26 22:40 52.66457 -1.27082 20581 ft 321 kts 325°
2026-04-26 22:40 52.68353 -1.29018 20226 ft 321 kts 325°
2026-04-26 22:41 52.70260 -1.30961 19848 ft 322 kts 325°
2026-04-26 22:41 52.72170 -1.32903 19494 ft 323 kts 325°
2026-04-26 22:41 52.74083 -1.34850 19133 ft 324 kts 325°
2026-04-26 22:41 52.76006 -1.36807 18763 ft 325 kts 325°
2026-04-26 22:42 52.77943 -1.38781 18345 ft 327 kts 325°
2026-04-26 22:42 52.79880 -1.40758 17919 ft 327 kts 326°
2026-04-26 22:42 52.81790 -1.42709 17530 ft 327 kts 326°
2026-04-26 22:42 52.83725 -1.44688 17145 ft 327 kts 326°
2026-04-26 22:43 52.85661 -1.46670 16765 ft 327 kts 326°
2026-04-26 22:43 52.87597 -1.48654 16372 ft 327 kts 326°
2026-04-26 22:43 52.89531 -1.50638 15996 ft 327 kts 326°
2026-04-26 22:43 52.91403 -1.52560 15588 ft 306 kts 326°
2026-04-26 22:44 52.93163 -1.54366 15237 ft 292 kts 326°
2026-04-26 22:44 52.94890 -1.56144 14915 ft 293 kts 327°
2026-04-26 22:44 52.96626 -1.57935 14567 ft 294 kts 327°
2026-04-26 22:44 52.98370 -1.59734 14222 ft 296 kts 327°
2026-04-26 22:45 53.00125 -1.61545 13851 ft 298 kts 327°
2026-04-26 22:45 53.01891 -1.63369 13465 ft 300 kts 327°
2026-04-26 22:45 53.03665 -1.65203 13076 ft 301 kts 327°
2026-04-26 22:45 53.05424 -1.67083 12688 ft 297 kts 321°
2026-04-26 22:46 53.06880 -1.69494 12349 ft 296 kts 309°
2026-04-26 22:46 53.08183 -1.72149 11966 ft 297 kts 308°
2026-04-26 22:46 53.09494 -1.74809 11600 ft 298 kts 309°
2026-04-26 22:46 53.10790 -1.77380 11165 ft 281 kts 309°
2026-04-26 22:47 53.12026 -1.79807 10625 ft 269 kts 309°
2026-04-26 22:47 53.13225 -1.82146 10031 ft 261 kts 309°
2026-04-26 22:47 53.14395 -1.84425 9350 ft 257 kts 309°
2026-04-26 22:47 53.15531 -1.86639 8713 ft 251 kts 309°
2026-04-26 22:48 53.16646 -1.88813 8477 ft 247 kts 309°
2026-04-26 22:48 53.17764 -1.90994 8286 ft 247 kts 309°
2026-04-26 22:48 53.18873 -1.93158 8111 ft 246 kts 309°
2026-04-26 22:48 53.19986 -1.95334 7994 ft 245 kts 309°
2026-04-26 22:49 53.21086 -1.97480 7916 ft 241 kts 309°
2026-04-26 22:49 53.22175 -1.99608 7774 ft 241 kts 309°
2026-04-26 22:49 53.23290 -2.01674 7581 ft 238 kts 319°
2026-04-26 22:49 53.24796 -2.02776 7299 ft 244 kts 355°
2026-04-26 22:50 53.26462 -2.02623 7192 ft 236 kts
2026-04-26 22:50 53.28083 -2.02414 7137 ft 228 kts
2026-04-26 22:50 53.29629 -2.02227 6855 ft 219 kts
2026-04-26 22:50 53.31140 -2.02041 6472 ft 216 kts
2026-04-26 22:51 53.32619 -2.01858 6032 ft 216 kts
2026-04-26 22:51 53.34115 -2.01673 5583 ft 215 kts
2026-04-26 22:51 53.35604 -2.01489 5146 ft 214 kts
2026-04-26 22:51 53.37089 -2.01306 4707 ft 213 kts
2026-04-26 22:52 53.38550 -2.01126 4397 ft 207 kts
2026-04-26 22:52 53.39957 -2.00952 4143 ft 197 kts
2026-04-26 22:52 53.41299 -2.00787 3887 ft 191 kts
2026-04-26 22:52 53.42619 -2.00625 3575 ft 188 kts
2026-04-26 22:53 53.43907 -2.00466 3527 ft 186 kts
2026-04-26 22:53 53.45209 -2.00505 3489 ft 190 kts 341°
2026-04-26 22:53 53.46251 -2.01727 3505 ft 187 kts 301°
2026-04-26 22:53 53.46539 -2.03777 3490 ft 182 kts 260°
2026-04-26 22:54 53.45976 -2.05661 3338 ft 182 kts 232°
2026-04-26 22:54 53.45177 -2.07281 3096 ft 178 kts 232°
2026-04-26 22:54 53.44401 -2.08890 2847 ft 176 kts 232°
2026-04-26 22:54 53.43635 -2.10472 2609 ft 172 kts 232°
2026-04-26 22:55 53.42889 -2.12010 2382 ft 168 kts 232°
2026-04-26 22:55 53.42163 -2.13509 2167 ft 163 kts 232°
2026-04-26 22:55 53.41465 -2.14950 1950 ft 160 kts 232°
2026-04-26 22:55 53.40769 -2.16386 1753 ft 159 kts 232°
2026-04-26 22:56 53.40069 -2.17833 1527 ft 160 kts 232°
2026-04-26 22:56 53.39372 -2.19269 1319 ft 155 kts 232°
2026-04-26 22:56 53.38708 -2.20641 1103 ft 146 kts 232°
2026-04-26 22:56 53.38093 -2.21908 903 ft 135 kts 232°
2026-04-26 22:57 53.37502 -2.23127 730 ft 135 kts 232°
2026-04-26 22:57 53.36914 -2.24340 541 ft 133 kts 231°
2026-04-26 22:57 53.36326 -2.25538 365 ft 132 kts 229°
2026-04-26 22:57 53.35741 -2.26731 275 ft 129 kts 230°
2026-04-26 22:58 53.35307 -2.27632 245 ft 76 kts 231°
2026-04-26 22:58 53.35049 -2.28171 237 ft 36 kts 231°
2026-04-26 22:58 53.34964 -2.28454 241 ft 13 kts 256°
2026-04-26 22:58 53.34951 -2.28558 237 ft 5 kts 259°
2026-04-26 22:59 53.34946 -2.28610 236 ft 5 kts 259°
2026-04-26 22:59 53.34943 -2.28663 236 ft 5 kts 272°
2026-04-26 22:59 53.34954 -2.28711 235 ft 5 kts 302°
2026-04-26 22:59 53.34980 -2.28739 234 ft 5 kts 344°
2026-04-26 23:00 53.35010 -2.28728 235 ft 5 kts 25°
2026-04-26 23:00 53.35035 -2.28697 236 ft 5 kts 40°
2026-04-26 23:00 53.35050 -2.28672 238 ft 5 kts 46°
2026-04-26 23:00 53.35106 -2.28566 238 ft 15 kts 51°
2026-04-26 23:01 53.35175 -2.28414 237 ft 15 kts 53°
2026-04-26 23:01 53.35246 -2.28278 236 ft 17 kts 41°
2026-04-26 23:01 53.35359 -2.28177 239 ft 16 kts 14°
2026-04-26 23:01 53.35478 -2.28135 238 ft 19 kts 22°
2026-04-26 23:02 53.35534 -2.28074 239 ft 7 kts 40°
2026-04-26 23:02 53.35566 -2.28019 241 ft 7 kts 49°
2026-04-26 23:02 53.35597 -2.27957 243 ft 8 kts 50°
2026-04-26 23:02 53.35645 -2.27896 246 ft 9 kts 17°
2026-04-26 23:03 53.35713 -2.27880 250 ft 10 kts
2026-04-26 23:03 53.35787 -2.27865 254 ft 11 kts
2026-04-26 23:03 53.35867 -2.27850 258 ft 12 kts
2026-04-26 23:03 53.35954 -2.27863 260 ft 15 kts 339°
2026-04-26 23:04 53.36046 -2.27978 259 ft 19 kts 319°
2026-04-26 23:04 53.36143 -2.28123 259 ft 17 kts 315°
2026-04-26 23:04 53.36226 -2.28269 259 ft 16 kts 314°
2026-04-26 23:04 53.36312 -2.28416 259 ft 16 kts 317°
2026-04-26 23:05 53.36413 -2.28495 259 ft 14 kts 335°
2026-04-26 23:05 53.36495 -2.28613 259 ft 16 kts 315°
2026-04-26 23:05 53.36573 -2.28745 259 ft 13 kts 315°
2026-04-26 23:05 53.36655 -2.28738 259 ft 15 kts 41°
2026-04-26 23:06 53.36733 -2.28612 259 ft 16 kts 45°
2026-04-26 23:06 53.36799 -2.28503 259 ft 5 kts 45°
2026-04-26 23:06 53.36825 -2.28463 259 ft 5 kts 34°
2026-04-26 23:06 53.36859 -2.28475 259 ft 5 kts 329°
2026-04-26 23:07 53.36877 -2.28499 259 ft 0 kts 320°
2026-04-26 23:07 53.36886 -2.28513 259 ft 2 kts 316°
2026-04-26 23:07 53.36895 -2.28527 259 ft 0 kts 316°